Flag for British Virgin Islands Weather past 2 weeks in Road Town, Tortola, British Virgin Islands

Now
82 °F

Passing clouds.


Feels Like: 89 °F
Forecast: 80 / 84 °F
Wind: 10 mph from Southeast

Location: Beef Island - Tortola

Current Time: Jul 31, 2014 at 8:12:46 PM

Latest Report: Jul 31, 2014 at 7:00 PM


Visibility: N/A

Pressure: 29.98 "Hg

Humidity: 79%

Dew point: 75 °F

Location of Road TownLocation

Historic Weather in Road Town — Graph

°F

Road Town temperature yesterday

Maximum temperature yesterday: 88 °F (at 11:00 AM)
Minimum temperature yesterday: 81 °F (at 8:00 PM)
Average temperature yesterday: 85 °F

Past Weeks' High & Low Weather Summary

 TemperatureHumidityPressure
High91 °F (Jul 23, 12:00 PM)100% (Jul 24, 6:00 PM)30.12 "Hg (Jul 24, 6:00 PM)
Low73 °F (Jul 26, 12:00 PM)59% (Jul 23, 12:00 PM)29.98 "Hg (Jul 30, 5:00 PM)
Average85 °F72%30.06 "Hg
* Reported Jul 16 7:00 PM — Jul 31 7:00 PM, Road Town, Weather by CustomWeather, © 2014

Note: Actual official high and low records may vary slightly from our data, if they occured in-between our weather recording intervals... More about our weather records

Advertising

Road Town weather history for previous 24 hours

 ConditionsComfort  
Time TempWeatherWind HumidityBarometerVisibility
7:00 PM
Jul 31
82 °FPassing clouds.10 mph79%29.98 "HgN/A
6:00 PM84 °FScattered clouds.10 mph74%29.98 "HgN/A
5:00 PM86 °FScattered clouds.10 mph70%29.98 "HgN/A
4:00 PM88 °FScattered clouds.10 mph66%29.98 "HgN/A
3:00 PM86 °FScattered clouds.10 mph70%29.98 "HgN/A
2:00 PM88 °FScattered clouds.10 mph66%29.98 "HgN/A
1:00 PM88 °FScattered clouds.10 mph66%30.01 "HgN/A
12:00 PM88 °FScattered showers. Scattered clouds.10 mph70%30.04 "Hg4 mi
11:00 AM88 °FScattered clouds.10 mph66%30.04 "HgN/A
10:00 AM86 °FScattered clouds.12 mph70%30.04 "HgN/A
9:00 AM84 °FScattered clouds.12 mph74%30.01 "HgN/A
8:00 AM84 °FScattered clouds.12 mph74%30.01 "HgN/A
7:00 AM81 °FScattered clouds.12 mph84%30.01 "HgN/A
10:00 PM
Jul 30
81 °FPassing clouds.7 mph84%30.04 "HgN/A
9:00 PM82 °FPassing clouds.9 mph79%30.01 "HgN/A
8:00 PM81 °FPassing clouds.6 mph84%30.01 "HgN/A
Weather by CustomWeather, © 2014

See weather overviewHow to use our weather pages